THOR ABLESTAR R/B, 703

Orbit data source: Space-Track

THOR ABLESTAR R/B, 703 is space debris in LEO originally from a launch on Thu, 05 Dec 1963 UTC launched from the Air Force Western Test Range (AFWTR). Debris objects in space refer to the collection of defunct objects orbiting the Earth. Examples of debris include non-operational satellites, rocket bodies, and fragments generated from explosions, collisions, or faulty payload assembly.

Loading next visibility...
Identifier
703, 1963-049A
Orbit
LEO
Country
Flag of USUS
Related business
Manufacturer
Aerojet
Mission
Spacecraft
Bus & Motor
ABLESTAR, Unknown motor
Mass
~600 kg wet, 600 kg dry
Launch date (UTC)
1963-12-05 (62 years ago)
Launch vehicle
Unknown
Launch site
Air Force Western Test Range (AFWTR)
Object type
Payload
Rocket body
Debris
Shape & HBR
Cyl, 2.4 m
Radar Cross Section
6.048 m², Large (>1 m²)

Expand to show TLE details & history
Last TLE update: 1 day ago

TLE from 1 day ago
0 THOR ABLESTAR R/B
1 00703U 63049A   25260.01337168  .00000056  00000-0  73492-4 0  9996
2 00703  89.9159  72.3572 0015477 346.7670 124.9055 13.49978202 42407
Epoch: 2025-09-17T00:19Z
TLE epoch observation values (Epoch: 2025-09-17T00:19:15.313Z)
Latitude
68.25651°
Longitude
-108.86181°
Altitude
1,090.85 km
Speed
7.31 km/s
True Right ascension
16h 48m 35s
True Declination
68° 08' 36"
Sunlit
Object was in daylight at epoch
Visualization orbit readout
Latitude
Unknown
Longitude
Unknown
Altitude
Unknown
Speed
Unknown
Apparent Right ascension
Unknown
Apparent Declination
Unknown
Sunlit
N/A
Visualization observer readout
Local Sidereal Time
18:44:28
Azimuth
Unknown
Elevation
Unknown
Doppler factor
Unknown
Orbital elements
Apogee altitude
1,080.915 km
Perigee altitude
1,057.862 km
Semi-major axis
7,447.526 km
Eccentricity
0.00155
Inclination
89.9159°
RAAN
72.3572°
Arg. of periapsis
346.767°
True anomaly
125.05079°
Mean anomaly
124.9055°
Eccentric anomaly
124.97816°
Mean motion
3.37695 °/min
Orbital period
106.6 mins
BSTAR
0.000073492
Loading maneuver chart data...
Computing Atmospheric mass density...
Loading historical data...
Loading historical data...
Loading historical data...
Loading historical data...
Loading historical data...
Loading historical data...
Loading historical data...

Documentation

Showing up to 5 results
|